Weather in Krynychky

Ukraine / Dnipropetrovsk Region     48°22′24″N   34°27′23″E
temp.,
°C
wind,
m/s
gust,
m/s
humid.,
%
clouds,
%
prec.,
mm/h
press.,
hPa
HPBL,
m
13 june, sun
sun1300:00+16wsw11810 0.0 101111
03:00+16ssw33850 0.0 101124
06:00+17ssw348251 0.0 101083
09:00+20ssw367398 0.0 1010263
12:00+22ssw576082 0.0 1010877
15:00+21sw4965100 0.0 1009222
18:00+21sse58738 0.4 1008313
21:00+18sse48780 0.5 1009118
14 june, mon
mon1400:00+17ssw45790 0.0 100970
03:00+15sse23822 0.0 100923
06:00+16se35905 0.0 1010113
09:00+21se45695 0.0 1011646
12:00+24sse565727 1.3 10111541
15:00+26s464855 1.8 10112184
18:00+25sse345715 0.0 1011732
21:00+20nw016939 0.1 101212
15 june, tue
tue1500:00+18w11758 0.1 101212
03:00+17n338318 0.1 101226
06:00+17ne378613 0.0 1012152
09:00+21ne587253 0.0 1012414
12:00+25ene56571 0.6 10111377
15:00+24e345988 0.9 1010555
18:00+21nne3571100 0.1 1009106
21:00+19s5885100 2.2 1009146
16 june, wed
wed1600:00+18ne3488100 0.9 100873
03:00+17e33930 1.1 100860
06:00+17ese259691 0.1 1009178
09:00+21e4478100 0.2 1009710
12:00+24ese4462100 0.1 10101170
15:00+19s4482100 1.6 1011361
18:00+18ssw2485100 0.3 1011259
21:00+16w3596100 2.3 1011225
17 june, thu
thu1700:00+16nnw4798100 3.6 1011257
03:00+16nne2697100 3.8 1011250
06:00+16nne499797 0.3 1011440
09:00+18ne578886 0.8 1012585
12:00+22e566999 0.8 10121274
15:00+22ese567189 2.8 1013903
18:00+22ese3570100 1.2 1014852
21:00+19ene3380100 1.3 101525